Regional Weather Roundup
Issued by NWS

Home | Current Version | Previous Version | Graphics & Text | Print | Product List | Glossary On
Versions: 1 2 3 4 5 6 7 8 9 10 11 12 13 14 15 16 17 18 19 20 21 22 23 24 25 26 27 28 29 30 31 32 33 34 35 36 37 38 39 40 41 42 43 44 45 46 47 48 49 50
000
ASUS43 KMPX 251101
RWRMN
WEATHER ROUNDUP FOR MINNESOTA
NATIONAL WEATHER SERVICE TWIN CITIES/CHANHASSEN MN
600 AM CDT MON SEP 25 2017


NOTE: "FAIR" INDICATES FEW OR NO CLOUDS BELOW 12,000 FEET WITH NO
SIGNIFICANT WEATHER AND/OR OBSTRUCTIONS TO VISIBILITY. N/A MEANS
CURRENT SKY AND/OR WEATHER CONDITIONS ARE NOT AVAILABLE.

MNZ060>063-068>070-251200-
   Twin Cities Metro

CITY           SKY/WX    TMP DP  RH WIND       PRES   REMARKS
TWIN CITIES    RAIN      61  61 100 NW9       29.97S FOG
ST PAUL        HVY RAIN  62  62 100 NW9       29.97R FOG
CRYSTAL        LGT RAIN  59  56  89 N8        29.97R
BLAINE         LGT RAIN  61  61 100 N3        29.98R
LAKEVILLE      LGT RAIN  61  61 100 NW6       29.97R
EDEN PRAIRIE   RAIN      61  59  93 N7        29.97R FOG
SOUTH ST PAUL  LGT RAIN  64  64  99 NW5       29.96S
LAKE ELMO      LGT RAIN  64  63  94 N7        29.97S
$$
MNZ001>005-007-008-013>017-022>024-027-028-251200-
   Northwest Minnesota

CITY           SKY/WX    TMP DP  RH WIND       PRES   REMARKS
BEMIDJI        CLOUDY    47  47 100 NW6       30.03R FOG
HALLOCK        CLOUDY    48  46  93 N14       30.07S
ROSEAU         CLOUDY    46  43  87 NW12      30.05R
WARROAD        CLOUDY    46  43  87 NW7       30.04R FOG
THIEF RVR FALL LGT RAIN  46  46 100 NW10      30.08R FOG
CROOKSTON      CLOUDY    48  46  93 N8        30.08S
FOSSTON        CLOUDY    46  45  93 NW12      30.05S FOG
DETROIT LAKES  CLOUDY    46  46 100 NW12      30.06R FOG
MOORHEAD       CLOUDY    48  46  93 N6        30.08R
PARK RAPIDS    CLOUDY    49  47  93 NW8       30.03R FOG
MAHNOMEN       CLOUDY    47  47  97 N8        30.05R
$$
MNZ006-009>011-018-025>026-251200-
   North Central Minnesota

CITY           SKY/WX    TMP DP  RH WIND       PRES   REMARKS
BAUDETTE       CLOUDY    49  49 100 NW9       30.02R
FLAG ISLAND    CLOUDY    48  46  93 NW15      30.01R
INTL FALLS     CLOUDY    50  49  96 W6        29.99R FOG
WASKISH        CLOUDY    48  46  93 NW9       30.02R
BIG FORK       CLOUDY    48  48 100 CALM      30.01R FOG
LONGVILLE      CLOUDY    50  48  93 W3        30.01R FOG
GRAND RAPIDS   CLOUDY    51  49  92 NW5       30.03R
CRANE LAKE     CLOUDY    50  48  93 CALM      30.00R
ORR            CLOUDY    50  46  87 CALM      29.97R FOG
WALKER         CLOUDY    48  47  96 NW7       30.02R
$$
MNZ012-019>021-037-251200-
   Northeast Minnesota

CITY           SKY/WX    TMP DP  RH WIND       PRES   REMARKS
DULUTH         CLOUDY    56  55  97 NW10      29.96S
ELY            PTCLDY    52  52 100 W5        29.97R
HIBBING        CLOUDY    51  49  92 N8        29.99R
EVELETH        CLOUDY    53  52  97 NW9       30.00R
DULUTH HARBOR  CLOUDY    63  57  82 W8        29.96R
TWO HARBORS    CLOUDY    63  57  82 NW6       29.93R
SILVER BAY     CLOUDY    63  61  94 NW3       29.91R
GRAND MARAIS     N/A     63  63 100 W5        29.88R
$$
MNZ029>031-032-039>041-046>048-054>057-064-251200-
   West Central Minnesota

CITY           SKY/WX    TMP DP  RH WIND       PRES   REMARKS
FERGUS FALLS   CLOUDY    48  48 100 N9        30.05F
WHEATON        CLOUDY    50  46  87 NW8       30.08R
MORRIS         DRIZZLE   52  48  87 N10       30.03R
ALEXANDRIA     LGT RAIN  50  49  96 N7        30.03F
ELBOW LAKE     MOCLDY    50  48  95 N13       30.04F
WADENA         CLOUDY    48  48 100 W6        30.04R
GLENWOOD       LGT RAIN  50  48  93 N5        30.03S
APPLETON       DRIZZLE   52  48  87 NW5       30.05R
BENSON         LGT RAIN  52  48  87 N7        30.06R
ORTONVILLE     CLOUDY    50  46  87 N9        30.06R
MADISON        LGT RAIN  54  54 100 N6        30.06S
WILLMAR        RAIN      54  54 100 NW6       30.03S
$$
MNZ033>034-036-042>043-049>051-058-059-251200-
   Central Minnesota

CITY           SKY/WX    TMP DP  RH WIND       PRES   REMARKS
ST CLOUD       LGT RAIN  53  53 100 NW9       29.98F
SAUK CENTRE    DRIZZLE   50  49  93 N7        30.04R
PAYNESVILLE    LGT RAIN  52  51  97 N5        30.02S
AITKIN         MOCLDY    52  48  87 N3        30.00R FOG
PINE RIVER     CLOUDY    46  45  93 NW7       30.05R FOG
BRAINERD       CLOUDY    52  49  89 NW7       30.01S
STAPLES        DRIZZLE   48  46  93 N3        30.03R
LITTLE FALLS   CLOUDY    52  45  76 NW5       30.03R
LITCHFIELD     RAIN      54  54 100 NW9       30.01R
BUFFALO        LGT RAIN  55  53  92 NW6       30.00R
MAPLE LAKE     RAIN      55  54  96 NW10      30.00R
HUTCHINSON     RAIN      55  54  98 NW10      30.00R
$$
MNZ037-044-045-052-053-251200-
   East Central Minnesota

CITY           SKY/WX    TMP DP  RH WIND       PRES   REMARKS
PRINCETON      RAIN      55  54  94 NW6       29.98F
MORA           RAIN      55  54  94 NW8       30.00S
RUSH CITY      CLOUDY    58  56  94 NW3       29.98R
MOOSE LAKE     CLOUDY    55  52  88 CALM      29.97R
HINCKLEY       CLOUDY    59  57  94 NW5       29.98R
CLOQUET        CLOUDY    55  52  88 NW7       29.98S
MCGREGOR       CLOUDY    52  50  93 NW5       30.01R
$$
MNZ071>073-080-081-089-090-097-098-251200-
   Southwest Minnesota

CITY           SKY/WX    TMP DP  RH WIND       PRES   REMARKS
MONTEVIDEO     LGT RAIN  50  48  93 N7        30.04R
GRANITE FALLS  LGT RAIN  52  51  95 NW9       30.05R
CANBY          LGT RAIN  51  50  94 N7        30.06S
REDWOOD FALLS  LGT RAIN  52  50  93 NW7       30.00F
OLIVIA         LGT RAIN  52  50  93 NW7       30.00F
PIPESTONE      LGT RAIN  52  50  93 NE9       30.01S
WINDOM         LGT RAIN  54  52  94 N9        30.01F
WORTHINGTON    RAIN      52  51  97 N9        30.01F
JACKSON        CLOUDY    52  52 100 CALM      30.01F
TRACY          LGT RAIN  52  53 100 N9        30.02S
SLAYTON        LGT RAIN  51  46  82 N6        30.03R
$$
MNZ065>067-074>077-082>085-091>093-251200-
   South Central Minnesota

CITY           SKY/WX    TMP DP  RH WIND       PRES   REMARKS
MANKATO        CLOUDY    58  57  97 NW9       30.00R
NEW ULM        RAIN      54  54 100 N5        30.00S
ST JAMES       LGT RAIN  54  54 100 NW8       30.01F
FAIRMONT       CLOUDY    55  53  93 N14       30.00R
FARIBAULT      CLOUDY    63  63 100 NW7       29.97R
OWATONNA       CLOUDY    63  61  94 NW6       29.97R
WASECA         CLOUDY    59  57  94 NW3       29.98S FOG
ALBERT LEA     CLOUDY    66  64  94 N7        29.96S
$$
MNZ078>079-086>088-094>096-251200-
   Southeast Minnesota

CITY           SKY/WX    TMP DP  RH WIND       PRES   REMARKS
ROCHESTER      PTCLDY    65  63  93 NE7       29.95S
RED WING       CLOUDY    70  64  83 CALM      29.93R
STANTON        CLOUDY    65  63  92 W7        29.96R
DODGE CENTER   CLOUDY    66  64  94 N3        29.96R FOG
WINONA         CLEAR     63  63 100 CALM      29.94S
AUSTIN         CLOUDY    64  63  94 NW5       29.94S FOG
PRESTON        PTCLDY    63  60  88 CALM      29.96S
$$
ABBREVIATIONS USED IN REMARKS
   TC - TEMPERATURES IN CELSIUS
  WCI - WIND CHILL INDEX
   HX - HEAT INDEX
  VSB - VISIBILITY
$$




USA.gov is the U.S. government's official web portal to all federal, state and local government web resources and services.